TimeEST,TemperatureF,Dew PointF,Humidity,Sea Level PressureIn,VisibilityMPH,Wind Direction,Wind SpeedMPH,Gust SpeedMPH,PrecipitationIn,Events,Conditions,WindDirDegrees,DateUTC
12:53 AM,30.0,21.9,72,30.53,10.0,North,8.1,-,N/A,,Clear,10,2012-11-15 05:53:00
1:53 AM,28.9,21.0,72,30.51,10.0,North,6.9,-,N/A,,Clear,10,2012-11-15 06:53:00
2:53 AM,28.0,21.0,75,30.50,10.0,North,6.9,-,N/A,,Clear,360,2012-11-15 07:53:00
3:53 AM,27.0,21.0,78,30.50,10.0,North,5.8,-,N/A,,Clear,350,2012-11-15 08:53:00
4:53 AM,28.0,21.9,78,30.51,10.0,NNW,5.8,-,N/A,,Clear,330,2012-11-15 09:53:00
5:53 AM,28.0,21.9,78,30.49,10.0,NNE,6.9,-,N/A,,Clear,20,2012-11-15 10:53:00
6:53 AM,28.0,21.9,78,30.49,10.0,NNE,8.1,-,N/A,,Clear,20,2012-11-15 11:53:00
7:53 AM,30.0,23.0,75,30.50,10.0,North,8.1,-,N/A,,Clear,10,2012-11-15 12:53:00
8:53 AM,33.1,25.0,72,30.50,10.0,NNE,13.8,21.9,N/A,,Clear,20,2012-11-15 13:53:00
9:53 AM,34.0,25.0,70,30.48,10.0,North,12.7,19.6,N/A,,Scattered Clouds,10,2012-11-15 14:53:00
10:37 AM,35.6,26.6,70,30.45,10.0,North,16.1,-,N/A,,Mostly Cloudy,10,2012-11-15 15:37:00
10:48 AM,35.6,26.6,70,30.44,10.0,North,13.8,-,N/A,,Scattered Clouds,10,2012-11-15 15:48:00
10:53 AM,34.0,26.1,73,30.45,10.0,NNE,12.7,-,N/A,,Scattered Clouds,20,2012-11-15 15:53:00
11:53 AM,36.0,25.0,64,30.41,10.0,NNE,11.5,-,N/A,,Clear,20,2012-11-15 16:53:00
12:53 PM,37.9,26.1,62,30.40,10.0,NW,8.1,-,N/A,,Clear,320,2012-11-15 17:53:00
1:53 PM,39.0,26.1,60,30.38,10.0,North,11.5,-,N/A,,Clear,350,2012-11-15 18:53:00
2:53 PM,39.0,25.0,57,30.38,10.0,NNE,6.9,-,N/A,,Clear,20,2012-11-15 19:53:00
3:53 PM,37.0,25.0,62,30.37,10.0,NNE,4.6,-,N/A,,Clear,20,2012-11-15 20:53:00
4:53 PM,35.1,25.0,67,30.37,10.0,NNE,4.6,-,N/A,,Clear,20,2012-11-15 21:53:00
5:53 PM,34.0,25.0,70,30.36,10.0,Calm,Calm,-,N/A,,Clear,0,2012-11-15 22:53:00
6:53 PM,33.1,25.0,72,30.36,10.0,Calm,Calm,-,N/A,,Clear,0,2012-11-15 23:53:00
7:53 PM,30.9,25.0,79,30.36,10.0,NNW,4.6,-,N/A,,Clear,330,2012-11-16 00:53:00
8:53 PM,30.0,25.0,82,30.36,10.0,NNW,6.9,-,N/A,,Clear,330,2012-11-16 01:53:00
9:53 PM,30.9,25.0,79,30.35,10.0,North,3.5,-,N/A,,Clear,360,2012-11-16 02:53:00
10:53 PM,30.0,25.0,82,30.35,10.0,North,3.5,-,N/A,,Clear,350,2012-11-16 03:53:00
11:53 PM,28.9,25.0,85,30.34,10.0,NNW,4.6,-,N/A,,Clear,330,2012-11-16 04:53:00